Prince Albert Glass Field
CYPA : rendu visible

Aérodrome :











RETROUVEZ-NOUS SUR...

 
LOGIN :

S'inscrire | Disclaimer

   EN    FR    IT 

 









Légende :    VFR   VFR Marginal   IFR   IFR Intensif   IFR Très Intensif
Visi : 
Plafond : 
>= 8 km
>= 3000ft
5 à 8 km
1000 à 3000 ft
1500m à 5 km
500 à 1000 ft
800 à 1500m
200 à 500 ft
< 800m
< 200 ft
Symboles :   Orages  Brouillard  Fortes neiges  Fortes précipitations  Vent > 20 kt






- Altitude de l'aérodrome : 1405 ft
- Code IATA : YPA


CYPA - Prince Albert Glass Field

DERNIER METAR :
  • 222200Z 27010KT 15SM SCT080 BKN250 06/M01 A2959 RMK AC3CI2 SLP042

METARs EXPIRÉS :
  • 222100Z 28007KT 15SM SCT120 BKN250 05/M02 A2958 RMK AC3CI4 ACC ASOCTD SLP040
  • 222000Z 25006KT 15SM BKN110 BKN250 05/M03 A2958 RMK AC6CI1 ACC ASOCTD PRESFR SLP039

TAF TAF CYPA
Valide du 22 à 19h jusqu'au 23 à 07h UTC


221838Z 2219/2307 26008KT P6SM BKN120 BKN250
FM222100 29012G22KT P6SM SCT080 BKN120
TEMPO 2221/2223 P6SM -SHRA BKN080
FM222300 29012KT P6SM FEW080
BECMG 2303/2305 27008KT RMK NXT FCST BY 230100Z



MET'MAP, la Météo Aéronautique d'un coup d'oeil ! - Copyright ORBIFLY Décembre 2007 - Disclaimer

ORBIFLY MET'MAP TEAM :

Programmation & Développement : Alexandra Zaïnal
Conception & Développement : Baudouin d'Aumeries
Co-Programmation & Développement : Marc-Olivier Méhu
Soutien technique & logistique : Manuel Goepfert

Contact : metmap@orbifly.com




SOURCES & CREDITS :

   NOAA       Earth
Advisory